{"data":{"norad_id":64770,"intl_designator":"2025-147R","name":"STARLINK-34618","alt_names":[],"object_type":"PAYLOAD","status":"ACTIVE","operator":null,"country":"US","launch_date":"2025-07-08","launch_site_code":"AFETR","launch_vehicle":null,"mission":null,"orbit_class":"UNKNOWN","rcs_meters":null,"size_class":null,"mass_kg":null,"dimensions":null,"purposes":["comms"],"wikipedia_slug":null,"has_3d_model":false,"image_url":null,"decayed_at":null,"tle_current":{"epoch":"2026-09-20T21:44:14.581248Z","epoch_age_seconds":92630,"freshness":"FRESH","line1":"1 64770U 25147R   26263.90572432  .00016277  00000+0  49152-3 0  9990","line2":"2 64770  53.1603  51.4939 0000853  87.8090 272.3010 15.34418886 68639","mean_motion":15.34418886,"eccentricity":8.53e-5,"inclination_deg":53.1603,"raan_deg":51.4939,"arg_perigee_deg":87.809,"mean_anomaly_deg":272.301,"bstar":0.00049152,"rev_number":6863,"period_min":93.846602980355,"perigee_km":462.06358872643,"apogee_km":463.23062649519,"semimajor_km":6840.7841076108,"source":"CELESTRAK","updated_at":"2026-09-21T09:00:35.439203Z"}}}